This is the latest recevied weather packets stored in our database for station/object OE9SAU-10. If no packets are shown the sender has not sent any weather packets the latest 1 day(s).
| Time | Temp. | Humidity | Pressure | Rain* | Wind** | Luminosity | Snow |
|---|---|---|---|---|---|---|---|
| 1778076231 | 20.56° C | 41% | 1010.3 hPa | - | - | - | - |
| 1778074431 | 21.67° C | 44% | 1009.8 hPa | - | - | - | - |
| 1778073531 | 21.67° C | 45% | 1009.6 hPa | - | - | - | - |
| 1778071731 | 20° C | 48% | 1009.6 hPa | - | - | - | - |
| 1778070831 | 19.44° C | 48% | 1009.7 hPa | - | - | - | - |
| 1778069931 | 19.44° C | 49% | 1009.7 hPa | - | - | - | - |
| 1778069031 | 18.89° C | 49% | 1009.5 hPa | - | - | - | - |
| 1778068131 | 18.89° C | 48% | 1010.2 hPa | - | - | - | - |
| 1778063630 | 18.89° C | 48% | 1009.6 hPa | - | - | - | - |
| 1778062730 | 18.89° C | 48% | 1009.9 hPa | - | - | - | - |
| 1778060930 | 18.33° C | 48% | 1010.4 hPa | - | - | - | - |
| 1778060030 | 17.78° C | 48% | 1010.2 hPa | - | - | - | - |
| 1778059130 | 17.78° C | 50% | 1010.2 hPa | - | - | - | - |
| 1778058230 | 17.22° C | 51% | 1010.2 hPa | - | - | - | - |
| 1778057330 | 16.67° C | 53% | 1010.2 hPa | - | - | - | - |
| 1778056430 | 16.67° C | 51% | 1010 hPa | - | - | - | - |
| 1778055530 | 16.11° C | 50% | 1010.6 hPa | - | - | - | - |
| 1778054630 | 16.11° C | 53% | 1010.5 hPa | - | - | - | - |
| 1778053730 | 15.56° C | 52% | 1010.5 hPa | - | - | - | - |
| 1778052830 | 15.56° C | 50% | 1010.4 hPa | - | - | - | - |
| 1778045629 | 15° C | 48% | 1010.7 hPa | - | - | - | - |
| 1778044729 | 15° C | 49% | 1010.7 hPa | - | - | - | - |
| 1778042928 | 15° C | 48% | 1010.9 hPa | - | - | - | - |
| 1778038428 | 15.56° C | 47% | 1011.8 hPa | - | - | - | - |
| 1778037528 | 15.56° C | 48% | 1011.8 hPa | - | - | - | - |
* Rain since midnight (hover to see other rain measurements)
** Current wind speed in m/s (hover to see current wind gust speed)